EW4282 Weather Reports


Display with metric or nautical units.
time (UTC)temp
F
wind
direction
speed
MPH
gust
MPH
rain 1hr
in
rain 24hr
in
rain mn
in
humidity
%
barometer
mb
20260510203045 80 79 2.0 7.0 0.00 0.00 0.00 48 1015.7
20260510201543 79 35 1.0 6.0 0.00 0.00 0.00 51 1016.0
20260510200110 79 17 2.0 6.0 0.00 0.00 0.00 53 1016.1
20260510194551 79 5 0.0 6.0 0.00 0.00 0.00 58 1016.2
20260510193044 79 325 1.0 3.0 0.00 0.00 0.00 57 1016.2
20260510191545 78 26 2.0 7.0 0.00 0.00 0.00 61 1016.2
20260510190033 78 355 4.0 6.0 0.00 0.00 0.00 58 1016.2
20260510184530 78 159 2.0 6.0 0.00 0.00 0.00 58 1016.5
20260510183041 77 216 0.0 6.0 0.00 0.00 0.00 66 1016.6
20260510181528 77 217 3.0 5.0 0.00 0.00 0.00 67 1016.7
20260510180025 75 220 1.0 5.0 0.00 0.00 0.00 69 1016.9
20260510174520 74 341 0.0 6.0 0.00 0.00 0.00 76 1017.1
20260510173019 74 360 1.0 5.0 0.00 0.00 0.00 78 1017.4
20260510171518 75 331 2.0 5.0 0.00 0.00 0.00 77 1017.3
20260510170015 73 240 1.0 6.0 0.00 0.00 0.00 79 1017.3
20260510164514 72 243 2.0 7.0 0.00 0.00 0.00 83 1017.4
20260510163011 72 152 5.0 7.0 0.00 0.00 0.00 83 1017.4
20260510161508 71 190 3.0 7.0 0.00 0.00 0.00 84 1017.6
20260510160006 71 238 2.0 7.0 0.00 0.00 0.00 86 1017.5
20260510154503 70 284 1.0 5.0 0.00 0.00 0.00 89 1017.3
20260510153059 68 317 2.0 4.0 0.00 0.00 0.00 90 1017.2
20260510151601 66 183 3.0 5.0 0.00 0.00 0.00 94 1017.3
20260510150053 66 109 3.0 6.0 0.00 0.00 0.00 96 1017.3
20260510144552 64 119 3.0 7.0 0.00 0.00 0.00 96 1017.3
20260510143048 64 135 1.0 5.0 0.00 0.00 0.00 97 1017.2
20260510141555 63 108 3.0 6.0 0.00 0.00 0.00 97 1017.2
20260510140044 62 116 1.0 5.0 0.00 0.00 0.00 97 1017.3
20260510134542 62 240 2.0 5.0 0.00 0.00 0.00 97 1017.2
20260510133049 61 113 2.0 5.0 0.00 0.00 0.00 96 1017.1
20260510131536 61 251 0.0 2.0 0.00 0.00 0.00 97 1017.1
20260510130033 60 221 0.0 2.0 0.00 0.00 0.00 96 1017.0
20260510124531 60 281 0.0 2.0 0.00 0.00 0.00 96 1017.0
20260510123027 59 111 0.0 4.0 0.00 0.00 0.00 96 1016.6
20260510121526 58 5 1.0 4.0 0.00 0.00 0.00 96 1016.5
20260510120025 57 5 0.0 4.0 0.00 0.00 0.00 96 1016.2
20260510114523 56 9 0.0 2.0 0.00 0.00 0.00 96 1015.9
20260510113021 55 29 0.0 0.0 0.00 0.00 0.00 95 1015.7
20260510111512 54 227 0.0 0.0 0.00 0.00 0.00 95 1015.6
20260510110009 55 227 0.0 0.0 0.00 0.00 0.00 95 1015.3
20260510104508 54 227 0.0 0.0 0.00 0.00 0.00 95 1015.2
20260510103006 54 227 0.0 0.0 0.00 0.00 0.00 95 1014.8
20260510101502 54 227 0.0 0.0 0.00 0.00 0.00 95 1014.6
20260510100001 54 227 0.0 0.0 0.00 0.00 0.00 95 1014.5
20260510094601 54 227 0.0 0.0 0.00 0.00 0.00 95 1014.3
20260510093059 55 227 0.0 0.0 0.00 0.00 0.00 95 1014.4
20260510091600 55 227 0.0 0.0 0.00 0.00 0.00 95 1014.2
20260510090101 55 227 0.0 0.0 0.00 0.00 0.00 95 1014.5
20260510084558 55 227 0.0 0.0 0.00 0.00 0.00 95 1014.4
20260510083055 56 227 0.0 0.0 0.00 0.00 0.00 95 1014.1
20260510081553 56 227 0.0 0.0 0.00 0.00 0.00 95 1013.7
20260510080052 56 227 0.0 0.0 0.00 0.00 0.00 95 1013.7
20260510074548 57 227 0.0 0.0 0.00 0.00 0.00 95 1013.6
20260510073103 57 227 0.0 0.0 0.00 0.00 0.00 95 1013.6
20260510071555 57 227 0.0 0.0 0.00 0.00 0.00 95 1013.6
20260510070044 57 227 0.0 0.0 0.00 0.00 0.00 95 1013.6
20260510064550 58 227 0.0 0.0 0.00 0.00 0.00 95 1013.6
20260510063045 58 227 0.0 0.0 0.00 0.00 0.00 95 1013.7
20260510061540 58 227 0.0 0.0 0.00 0.00 0.00 95 1013.5
20260510060037 59 227 0.0 0.0 0.00 0.00 0.00 95 1013.6
20260510054536 59 227 0.0 0.0 0.00 0.00 0.00 95 1013.7
20260510053037 59 227 0.0 0.0 0.00 0.00 0.00 95 1013.7
20260510051537 60 227 0.0 0.0 0.00 0.00 0.00 95 1013.6
20260510050031 60 227 0.0 0.0 0.00 0.00 0.00 95 1013.7
20260510044543 60 227 0.0 0.0 0.00 0.00 0.00 95 1013.8
20260510043029 60 227 0.0 0.0 0.00 0.00 0.00 95 1013.9
20260510041528 61 227 0.0 0.0 0.00 0.00 0.00 95 1014.0
20260510040031 61 227 0.0 0.0 0.00 0.00 0.00 95 1014.1
20260510034534 61 227 0.0 0.0 0.00 0.00 0.00 95 1014.0
20260510033027 61 227 0.0 0.0 0.00 0.00 0.00 95 1014.0
20260510031531 61 227 0.0 0.0 0.00 0.00 0.00 95 1013.9
20260510030024 61 227 0.0 0.0 0.00 0.00 0.00 95 1013.7
20260510024523 62 227 0.0 0.0 0.00 0.00 0.00 95 1013.6
20260510023020 62 227 0.0 0.0 0.00 0.00 0.00 95 1013.4
20260510021531 62 227 0.0 0.0 0.00 0.00 0.00 94 1013.1
20260510020016 63 227 0.0 0.0 0.00 0.00 0.00 94 1012.7
20260510014513 63 227 0.0 0.0 0.00 0.00 0.00 94 1012.5
20260510013012 64 227 0.0 0.0 0.00 0.00 0.00 94 1012.1
20260510011512 64 227 0.0 0.0 0.00 0.00 0.00 93 1011.9
20260510010011 65 227 0.0 0.0 0.00 0.00 0.00 92 1011.7
20260510004511 67 227 0.0 0.0 0.00 0.00 0.00 91 1011.4
20260510003010 68 227 0.0 0.0 0.00 0.00 0.00 90 1011.1
20260510001509 69 227 0.0 0.0 0.00 0.00 0.00 89 1011.1
20260510000015 69 227 0.0 0.0 0.00 0.00 0.00 87 1011.1
20260509234509 70 227 0.0 0.0 0.00 0.00 0.00 85 1010.9
20260509233008 71 232 0.0 1.0 0.00 0.00 0.00 85 1010.8
20260509231507 71 232 0.0 1.0 0.00 0.00 0.00 82 1010.9
20260509230007 72 232 0.0 0.0 0.00 0.00 0.00 82 1010.8
20260509224507 73 232 0.0 2.0 0.00 0.00 0.00 78 1010.8
20260509223007 74 234 0.0 0.0 0.00 0.00 0.00 76 1010.8
20260509221506 74 234 0.0 2.0 0.00 0.00 0.00 67 1010.6
20260509220005 74 234 2.0 4.0 0.00 0.00 0.00 69 1010.6
20260509214505 75 241 2.0 5.0 0.00 0.00 0.00 65 1010.5
20260509213004 75 342 0.0 4.0 0.00 0.00 0.00 66 1010.4
20260509211508 75 346 2.0 5.0 0.00 0.00 0.00 65 1010.5
20260509210004 75 343 0.0 5.0 0.00 0.00 0.00 63 1010.5
20260509204501 75 18 1.0 7.0 0.00 0.00 0.00 65 1010.7